Fayetteville, NC

9:36 AM EDT on March 29, 2017 (GMT -0400)
Fayetteville Regional-Grannis

Weather History for KFAY - March, 2013

Change the Weather History Date:

Thursday, March 28, 2013

  Actual Average Record
Temperature  
Mean Temperature 47 °F 58 °F  
Max Temperature 59 °F 70 °F 87 °F (1945)
Min Temperature 34 °F 46 °F 17 °F (1982)
Degree Days  
Heating Degree Days 18 8  
Month to date heating degree days 477 321  
Since 1 July heating degree days 2573 2546  
Cooling Degree Days 0 1  
Month to date cooling degree days 3 3  
Year to date cooling degree days 8 7  
Moisture  
Dew Point 21 °F    
Average Humidity 42    
Maximum Humidity 61    
Minimum Humidity 23    
Precipitation  
Precipitation 0.00 in 0.14 in 1.72 in (1941)
Month to date precipitation 1.46 3.14  
Year to date precipitation 7.10 9.20  
Sea Level Pressure  
Sea Level Pressure 30.21 in    
Wind  
Wind Speed 9 mph (NW)    
Max Wind Speed 20 mph    
Max Gust Speed 28 mph    
Visibility 10 miles    
Events      
T = Trace of Precipitation, MM = Missing Value Source: NWS Daily Summary

Daily Weather History Graph

Daily Weather History Graph

Search for Another Location

Airport or City:

Trip Planner

Search our weather history database for the weather conditions in past years. The results will help you decide how hot, cold, wet, or windy it might be!

Date:

Astronomy

Mar. 28, 2013 Rise Set
Actual Time 7:07 AM EDT 7:33 PM EDT
Civil Twilight 6:42 AM EDT 7:59 PM EDT
Nautical Twilight 6:12 AM EDT 8:29 PM EDT
Astronomical Twilight 5:42 AM EDT 8:59 PM EDT
Moon 9:17 PM EDT (3/28) 7:38 AM EDT (3/28)
Length of Visible Light 13h 16m
Length of Day
12h 26m
Full, 98% of the Moon is Illuminated
Mar 28
Full
Apr 3
Last Quarter
Apr 10
New
Apr 18
First Quarter
Apr 25
Full

Hourly Weather History & Observations

Time (EDT) Temp. Windchill Dew Point Humidity Pressure Visibility Wind Dir Wind Speed Gust Speed Precip Events Conditions
12:53 AM 39.9 °F 35.1 °F 21.9 °F 49% 30.22 in 10.0 mi NW 6.9 mph - N/A   Clear
1:53 AM 39.0 °F 34.0 °F 21.0 °F 49% 30.21 in 10.0 mi NW 6.9 mph - N/A   Clear
2:53 AM 39.0 °F 34.0 °F 21.0 °F 49% 30.21 in 10.0 mi NW 6.9 mph - N/A   Clear
3:53 AM 37.9 °F 31.5 °F 21.0 °F 51% 30.20 in 10.0 mi NW 9.2 mph - N/A   Clear
4:53 AM 37.0 °F 31.6 °F 21.0 °F 52% 30.20 in 10.0 mi NW 6.9 mph - N/A   Clear
5:53 AM 37.0 °F 31.6 °F 21.9 °F 54% 30.20 in 10.0 mi WNW 6.9 mph - N/A   Clear
6:53 AM 34.0 °F 28.0 °F 21.9 °F 61% 30.22 in 10.0 mi WNW 6.9 mph - N/A   Clear
7:53 AM 37.0 °F 31.0 °F 21.9 °F 54% 30.24 in 10.0 mi WNW 8.1 mph - N/A   Clear
8:53 AM 43.0 °F 37.7 °F 21.9 °F 43% 30.25 in 10.0 mi NW 9.2 mph - N/A   Clear
9:53 AM 46.0 °F 39.6 °F 23.0 °F 40% 30.25 in 10.0 mi NW 15.0 mph 23.0 mph N/A   Clear
10:53 AM 48.9 °F - 21.9 °F 35% 30.25 in 10.0 mi NNW 9.2 mph 18.4 mph N/A   Clear
11:53 AM 50.0 °F - 19.9 °F 31% 30.24 in 10.0 mi WNW 13.8 mph 23.0 mph N/A   Clear
12:53 PM 53.1 °F - 21.9 °F 30% 30.21 in 10.0 mi NNW 10.4 mph 21.9 mph N/A   Clear
1:53 PM 53.1 °F - 21.9 °F 30% 30.19 in 10.0 mi WNW 6.9 mph 19.6 mph N/A   Clear
2:53 PM 55.9 °F - 21.0 °F 26% 30.18 in 10.0 mi West 13.8 mph 23.0 mph N/A   Clear
3:53 PM 57.0 °F - 21.0 °F 25% 30.15 in 10.0 mi NW 11.5 mph - N/A   Clear
4:53 PM 57.9 °F - 19.0 °F 22% 30.15 in 10.0 mi NW 12.7 mph 23.0 mph N/A   Clear
5:53 PM 57.0 °F - 19.0 °F 23% 30.15 in 10.0 mi WNW 11.5 mph - N/A   Partly Cloudy
6:53 PM 55.9 °F - 19.0 °F 24% 30.17 in 10.0 mi NW 10.4 mph - N/A   Clear
7:53 PM 53.1 °F - 19.9 °F 27% 30.19 in 10.0 mi NW 6.9 mph - N/A   Clear
8:53 PM 51.1 °F - 21.9 °F 32% 30.21 in 10.0 mi WNW 4.6 mph - N/A   Clear
9:53 PM 48.0 °F - 23.0 °F 37% 30.24 in 10.0 mi NW 5.8 mph - N/A   Clear
10:53 PM 46.9 °F - 23.0 °F 39% 30.26 in 10.0 mi WNW 4.6 mph - N/A   Clear
11:53 PM 44.1 °F 41.5 °F 23.0 °F 43% 30.28 in 10.0 mi NW 4.6 mph - N/A   Clear